GW7256 Weather Reports


Display with metric or nautical units.
time (UTC)temp
F
wind
direction
speed
MPH
gust
MPH
rain 1hr
in
rain 24hr
in
rain mn
in
humidity
%
barometer
mb
20260502170318 53 129 2.0 6.0 0.07 0.29 0.29 88 1013.2
20260502164306 52 155 0.0 2.0 0.00 0.27 0.27 90 1013.7
20260502163802 53 145 0.0 1.0 0.07 0.27 0.27 90 1013.9
20260502163258 53 77 1.0 2.0 0.00 0.26 0.26 90 1014.0
20260502162755 52 82 1.0 2.0 0.05 0.26 0.26 90 1014.1
20260502162252 52 162 1.0 1.0 0.07 0.25 0.25 90 1014.1
20260502161749 52 119 2.0 2.0 0.07 0.25 0.25 90 1014.4
20260502161245 52 174 1.0 1.0 0.05 0.24 0.24 90 1014.3
20260502160744 52 103 3.0 3.0 0.05 0.24 0.24 90 1014.5
20260502160243 52 146 0.0 2.0 0.00 0.23 0.23 89 1014.4
20260502152212 53 155 1.0 2.0 0.00 0.21 0.21 88 1014.3
20260502151709 53 140 1.0 2.0 0.07 0.21 0.21 89 1014.1
20260502151206 52 168 0.0 2.0 0.07 0.21 0.21 88 1014.3
20260502150704 53 168 2.0 6.0 0.00 0.20 0.20 88 1014.1
20260502150200 53 177 2.0 2.0 0.00 0.20 0.20 89 1014.4
20260502140123 53 146 0.0 1.0 0.05 0.15 0.15 90 1013.4
20260502130548 52 135 0.0 1.0 0.07 0.10 0.10 90 1013.2
20260502123532 52 191 1.0 2.0 0.07 0.07 0.07 90 1012.4
20260502123028 52 205 2.0 3.0 0.07 0.07 0.07 89 1012.5
20260502122525 52 153 0.0 2.0 0.00 0.06 0.06 90 1012.6
20260502122022 52 155 0.0 3.0 0.05 0.06 0.06 89 1012.5
20260502121519 52 311 1.0 3.0 0.05 0.06 0.06 90 1012.7
20260502121017 52 346 2.0 3.0 0.07 0.05 0.05 89 1012.8
20260502120513 52 166 2.0 2.0 0.07 0.05 0.05 89 1012.5
20260502115508 53 132 1.0 2.0 0.05 0.04 0.04 88 1013.0
20260502115003 53 350 2.0 3.0 0.07 0.03 0.03 88 1012.9
20260502114500 53 170 1.0 2.0 0.07 0.03 0.03 87 1013.1
20260502113957 53 152 1.0 2.0 0.05 0.02 0.02 87 1012.8
20260502113455 53 170 1.0 1.0 0.05 0.02 0.02 86 1012.9
20260502112953 53 126 1.0 2.0 0.00 0.01 0.01 86 1013.0
20260502112450 53 118 1.0 3.0 0.00 0.01 0.01 84 1013.0
20260502111948 54 181 0.0 1.0 0.07 0.01 0.01 84 1013.1
20260502111445 54 359 2.0 2.0 0.07 0.01 0.01 83 1013.1
20260502110942 54 222 1.0 2.0 0.00 0.00 0.00 82 1012.9
20260502110440 54 352 2.0 2.0 0.00 0.00 0.00 82 1013.0
20260502105937 54 329 1.0 2.0 0.00 0.00 0.00 83 1012.9
20260502105434 54 333 0.0 1.0 0.00 0.00 0.00 84 1013.1
20260502104932 54 333 0.0 0.0 0.00 0.00 0.00 85 1012.9
20260502104429 54 293 0.0 1.0 0.00 0.00 0.00 84 1013.2
20260502103926 54 300 0.0 2.0 0.00 0.00 0.00 84 1013.0
20260502103424 54 344 2.0 3.0 0.00 0.00 0.00 84 1013.0
20260502102921 54 312 2.0 2.0 0.00 0.00 0.00 84 1013.0
20260502102417 54 322 2.0 3.0 0.00 0.00 0.00 84 1013.0
20260502101915 54 297 2.0 4.0 0.00 0.00 0.00 85 1012.8
20260502101413 54 197 2.0 2.0 0.00 0.00 0.00 86 1012.9
20260502100911 54 359 4.0 9.0 0.00 0.00 0.00 86 1012.9
20260502100410 54 344 2.0 4.0 0.00 0.00 0.00 86 1012.8
20260502091343 53 288 2.0 4.0 0.00 0.00 0.00 87 1012.8
20260502090841 53 352 1.0 4.0 0.00 0.00 0.00 87 1012.9
20260502090338 53 7 5.0 7.0 0.00 0.00 0.00 87 1012.6
20260502071233 52 200 0.0 0.0 0.00 0.00 0.00 90 1012.2
20260502070731 52 200 0.0 0.0 0.00 0.00 0.00 90 1012.2
20260502070229 52 200 0.0 0.0 0.00 0.00 0.00 91 1012.3
20260502065727 52 126 0.0 0.0 0.00 0.00 0.00 90 1012.2
20260502065224 52 200 0.0 0.0 0.00 0.00 0.00 90 1012.1
20260502064723 52 200 0.0 0.0 0.00 0.00 0.00 90 1012.2
20260502064220 52 200 0.0 0.0 0.00 0.00 0.00 90 1012.3
20260502063718 52 126 0.0 0.0 0.00 0.00 0.00 90 1012.3
20260502063215 52 126 0.0 0.0 0.00 0.00 0.00 90 1012.5
20260502062712 52 200 0.0 0.0 0.00 0.00 0.00 90 1012.5
20260502062210 52 200 0.0 0.0 0.00 0.00 0.00 90 1012.6
20260502061708 52 200 0.0 0.0 0.00 0.00 0.00 89 1012.6
20260502061205 52 200 0.0 0.0 0.00 0.00 0.00 90 1012.8
20260502060700 52 200 0.0 0.0 0.00 0.00 0.00 91 1012.4
20260502060157 52 200 0.0 0.0 0.00 0.00 0.00 91 1012.4
20260502055655 52 126 0.0 0.0 0.00 0.00 0.00 91 1012.6
20260502055152 52 200 0.0 0.0 0.00 0.00 0.00 90 1012.7
20260502054652 52 200 0.0 0.0 0.00 0.00 0.00 90 1012.7
20260502054148 52 200 0.0 0.0 0.00 0.00 0.00 90 1012.6
20260502053646 52 200 0.0 0.0 0.00 0.00 0.00 90 1012.9
20260502053142 52 200 0.0 0.0 0.00 0.00 0.00 90 1012.6
20260502052641 52 200 0.0 0.0 0.00 0.00 0.00 90 1013.0
20260502052138 52 200 0.0 0.0 0.00 0.00 0.00 89 1012.9
20260502051637 52 200 0.0 0.0 0.00 0.00 0.00 90 1013.0
20260502051134 52 200 0.0 0.0 0.00 0.00 0.00 90 1013.2
20260502050630 52 200 0.0 0.0 0.00 0.00 0.00 90 1013.0
20260502050127 52 200 0.0 0.0 0.00 0.00 0.00 90 1013.1
20260502045624 52 200 0.0 0.0 0.00 0.00 0.00 89 1012.8
20260502045121 52 200 0.0 0.0 0.00 0.00 0.00 89 1013.0
20260502044617 52 200 0.0 0.0 0.00 0.00 0.00 88 1013.1
20260502044114 52 200 0.0 0.0 0.00 0.00 0.00 89 1013.1
20260502043612 52 200 0.0 0.0 0.00 0.00 0.00 89 1013.2
20260502043108 52 200 0.0 0.0 0.00 0.00 0.00 89 1013.5
20260502042603 52 200 0.0 0.0 0.00 0.00 0.00 89 1013.1
20260502042100 52 200 0.0 0.0 0.00 0.00 0.00 90 1013.3
20260502041558 52 133 0.0 0.0 0.00 0.00 0.00 89 1013.4
20260502041055 52 133 1.0 1.0 0.00 0.00 0.00 89 1013.2
20260502040551 52 133 0.0 0.0 0.00 0.00 0.00 89 1013.2
20260502040049 52 134 0.0 0.0 0.00 0.00 0.00 88 1013.3
20260502035544 52 134 0.0 0.0 0.00 0.00 0.00 88 1013.3
20260502035042 53 134 0.0 0.0 0.00 0.00 0.00 88 1013.4
20260502034540 52 138 0.0 0.0 0.00 0.00 0.00 89 1013.4
20260502034038 52 138 0.0 0.0 0.00 0.00 0.00 89 1013.3
20260502033536 53 138 0.0 0.0 0.00 0.00 0.00 88 1013.4
20260502033033 53 138 0.0 0.0 0.00 0.00 0.00 88 1013.3
20260502032529 53 138 0.0 0.0 0.00 0.00 0.00 88 1013.4
20260502032026 52 138 0.0 0.0 0.00 0.00 0.00 88 1013.7
20260502031524 52 138 0.0 0.0 0.00 0.00 0.00 89 1013.7
20260502031021 52 138 0.0 0.0 0.00 0.00 0.00 88 1013.4
20260502030520 52 138 0.0 0.0 0.00 0.00 0.00 88 1013.7
20260502030018 52 138 0.0 0.0 0.00 0.00 0.00 88 1013.9
20260502025515 53 138 0.0 0.0 0.00 0.00 0.00 87 1013.9
20260502025013 53 138 0.0 0.0 0.00 0.00 0.00 87 1013.7
20260502024510 53 138 0.0 0.0 0.00 0.00 0.00 86 1013.9
20260502024008 53 138 0.0 0.0 0.00 0.00 0.00 86 1013.8
20260502023505 53 138 0.0 0.0 0.00 0.00 0.00 86 1013.9
20260502023002 53 138 0.0 1.0 0.00 0.00 0.00 86 1013.9
20260502022459 53 139 0.0 0.0 0.00 0.00 0.00 86 1014.0
20260502021956 53 139 0.0 0.0 0.00 0.00 0.00 86 1013.8
20260502021453 53 139 0.0 0.0 0.00 0.00 0.00 86 1013.9
20260502020950 53 139 0.0 0.0 0.00 0.00 0.00 86 1014.0
20260502020449 53 139 0.0 0.0 0.00 0.00 0.00 86 1013.8
20260502015944 53 139 0.0 0.0 0.00 0.00 0.00 87 1013.9
20260502015443 53 139 0.0 0.0 0.00 0.00 0.00 86 1013.9
20260502014939 53 139 0.0 0.0 0.00 0.00 0.00 86 1013.7
20260502014436 53 139 0.0 0.0 0.00 0.00 0.00 86 1014.0
20260502013932 53 139 0.0 0.0 0.00 0.00 0.00 85 1013.8
20260502013428 53 139 0.0 0.0 0.00 0.00 0.00 85 1013.8
20260502012924 53 139 0.0 0.0 0.00 0.00 0.00 85 1014.0
20260502012422 53 139 0.0 0.0 0.00 0.00 0.00 84 1014.0
20260502011920 53 139 0.0 0.0 0.00 0.00 0.00 84 1014.0
20260502011415 53 139 0.0 0.0 0.00 0.00 0.00 84 1013.7
20260502010913 54 139 0.0 0.0 0.00 0.00 0.00 84 1013.4
20260502010409 54 139 0.0 0.0 0.00 0.00 0.00 84 1013.4
20260502005906 54 139 0.0 0.0 0.00 0.00 0.00 84 1013.5
20260502005404 54 139 1.0 1.0 0.00 0.00 0.00 83 1013.5
20260502004901 54 139 0.0 0.0 0.00 0.00 0.00 83 1013.7
20260502004357 54 138 1.0 2.0 0.00 0.00 0.00 82 1013.2
20260502003855 54 141 1.0 1.0 0.00 0.00 0.00 81 1013.2
20260502003352 54 147 0.0 0.0 0.00 0.00 0.00 81 1013.1
20260502002848 54 147 1.0 1.0 0.00 0.00 0.00 81 1013.1
20260502002345 54 147 1.0 2.0 0.00 0.00 0.00 80 1013.1
20260502001843 55 152 0.0 0.0 0.00 0.00 0.00 81 1012.9
20260502001340 55 151 0.0 0.0 0.00 0.00 0.00 80 1013.3
20260502000838 55 153 0.0 1.0 0.00 0.00 0.00 81 1013.1
20260502000336 55 156 1.0 1.0 0.00 0.00 0.00 80 1013.3
20260501235832 54 157 1.0 1.0 0.00 0.00 0.00 80 1013.3
20260501235327 55 152 1.0 2.0 0.00 0.00 0.00 79 1013.1
20260501234823 55 172 0.0 1.0 0.00 0.00 0.00 80 1013.1
20260501234320 55 167 0.0 1.0 0.00 0.00 0.00 79 1013.2
20260501233819 55 168 0.0 2.0 0.00 0.00 0.00 79 1013.2
20260501233316 55 157 0.0 2.0 0.00 0.00 0.00 79 1013.1
20260501232811 55 151 2.0 3.0 0.00 0.00 0.00 77 1013.0
20260501232308 55 181 0.0 1.0 0.00 0.00 0.00 77 1013.5
20260501231806 55 145 2.0 2.0 0.00 0.00 0.00 76 1013.3
20260501231304 55 156 1.0 2.0 0.00 0.00 0.00 75 1013.2
20260501230802 55 159 0.0 1.0 0.00 0.00 0.00 76 1013.2
20260501230300 55 153 1.0 2.0 0.00 0.00 0.00 75 1013.3
20260501225757 55 167 1.0 1.0 0.00 0.00 0.00 74 1013.4
20260501225255 55 146 1.0 1.0 0.00 0.00 0.00 73 1013.3
20260501224751 55 155 1.0 2.0 0.00 0.00 0.00 74 1013.3
20260501224249 55 152 0.0 1.0 0.00 0.00 0.00 71 1013.5
20260501223744 55 136 1.0 2.0 0.00 0.00 0.00 73 1013.5
20260501223241 55 175 0.0 1.0 0.00 0.00 0.00 74 1013.4
20260501222737 55 160 1.0 1.0 0.00 0.00 0.00 73 1013.5
20260501222234 55 168 0.0 0.0 0.00 0.00 0.00 75 1013.7
20260501221731 55 181 0.0 0.0 0.00 0.00 0.00 75 1013.6
20260501221229 55 152 0.0 1.0 0.00 0.00 0.00 75 1013.9
20260501220726 54 152 1.0 1.0 0.00 0.00 0.00 74 1013.7
20260501220223 54 137 0.0 1.0 0.00 0.00 0.00 73 1013.7
20260501215720 54 171 1.0 1.0 0.00 0.00 0.00 74 1014.1
20260501215215 54 158 1.0 1.0 0.00 0.00 0.00 73 1013.8
20260501214710 54 169 1.0 4.0 0.00 0.00 0.00 71 1013.9
20260501214207 54 173 0.0 2.0 0.00 0.00 0.00 74 1014.0
20260501213703 54 130 2.0 2.0 0.00 0.00 0.00 71 1014.0
20260501213159 54 161 1.0 1.0 0.00 0.00 0.00 71 1014.0
20260501212656 54 162 2.0 4.0 0.00 0.00 0.00 68 1014.0
20260501212153 54 159 0.0 2.0 0.00 0.00 0.00 68 1014.0
20260501211649 54 153 0.0 1.0 0.00 0.00 0.00 70 1014.1
20260501211147 54 166 0.0 1.0 0.00 0.00 0.00 70 1014.2
20260501210643 54 138 2.0 2.0 0.00 0.00 0.00 68 1014.1
20260501210140 54 147 2.0 2.0 0.00 0.00 0.00 70 1014.2
20260501205637 54 179 2.0 2.0 0.00 0.00 0.00 71 1014.3
20260501205134 54 139 2.0 2.0 0.00 0.00 0.00 73 1014.2
20260501204631 54 163 2.0 2.0 0.00 0.00 0.00 73 1014.3
20260501204126 54 147 0.0 0.0 0.00 0.00 0.00 74 1014.3
20260501203623 54 144 0.0 0.0 0.00 0.00 0.00 75 1014.2
20260501203121 54 129 1.0 2.0 0.00 0.00 0.00 72 1014.2
20260501202618 54 168 0.0 0.0 0.00 0.00 0.00 72 1014.2
20260501202115 54 151 0.0 1.0 0.00 0.00 0.00 71 1014.3
20260501201612 54 170 1.0 2.0 0.00 0.00 0.00 73 1014.3
20260501201108 53 156 1.0 2.0 0.00 0.00 0.00 75 1014.5
20260501200605 53 161 1.0 1.0 0.00 0.00 0.00 76 1014.7
20260501195600 53 143 0.0 3.0 0.00 0.00 0.00 74 1014.9
20260501195055 53 113 2.0 2.0 0.00 0.00 0.00 73 1015.2
20260501194551 54 150 0.0 1.0 0.00 0.00 0.00 75 1014.9
20260501194047 55 151 3.0 4.0 0.00 0.00 0.00 69 1014.8
20260501193544 55 170 2.0 2.0 0.00 0.00 0.00 67 1014.9
20260501193043 55 143 3.0 4.0 0.00 0.00 0.00 64 1014.6
20260501192539 56 150 3.0 4.0 0.00 0.00 0.00 63 1014.7
20260501192037 57 99 3.0 4.0 0.00 0.00 0.00 62 1014.7
20260501191534 57 146 3.0 3.0 0.00 0.00 0.00 62 1014.8
20260501191031 57 151 2.0 3.0 0.00 0.00 0.00 61 1015.2
20260501190527 57 143 2.0 4.0 0.00 0.00 0.00 60 1015.1
20260501190023 59 168 2.0 6.0 0.00 0.00 0.00 57 1015.2
20260501185519 60 145 4.0 6.0 0.00 0.00 0.00 52 1015.1
20260501185015 60 179 3.0 4.0 0.00 0.00 0.00 51 1015.2
20260501184511 61 111 4.0 4.0 0.00 0.00 0.00 46 1015.2
20260501184006 61 156 1.0 3.0 0.00 0.00 0.00 46 1015.3
20260501183503 61 145 2.0 3.0 0.00 0.00 0.00 47 1015.5
20260501182959 61 166 1.0 2.0 0.00 0.00 0.00 46 1015.5
20260501182456 61 146 1.0 1.0 0.00 0.00 0.00 47 1015.5
20260501181953 62 146 2.0 2.0 0.00 0.00 0.00 43 1015.4
20260501181450 63 164 1.0 3.0 0.00 0.00 0.00 46 1015.2
20260501180947 64 160 1.0 2.0 0.00 0.00 0.00 43 1015.3
20260501180445 63 109 2.0 2.0 0.00 0.00 0.00 45 1015.3
20260501175940 62 204 1.0 6.0 0.00 0.00 0.00 47 1015.2
20260501175438 62 171 1.0 4.0 0.00 0.00 0.00 46 1015.4
20260501174934 62 141 3.0 4.0 0.00 0.00 0.00 49 1015.5
20260501174432 62 139 4.0 4.0 0.00 0.00 0.00 48 1015.3
20260501173930 62 135 0.0 4.0 0.00 0.00 0.00 49 1015.6
20260501173427 62 127 2.0 3.0 0.00 0.00 0.00 47 1015.6
20260501172922 62 125 1.0 2.0 0.00 0.00 0.00 48 1015.7
20260501172418 62 162 1.0 2.0 0.00 0.00 0.00 48 1015.6
20260501171914 62 159 2.0 4.0 0.00 0.00 0.00 45 1015.8